Peru, IN

1:29 AM EDT on July 21, 2017 (GMT -0400)
Grissom Air Reserve Base

Weather History for KGUS - December, 2012

Change the Weather History Date:

Wednesday, December 19, 2012

  Actual Average Record
Temperature  
Mean Temperature 38 °F -  
Max Temperature 42 °F 31 °F 53 °F (1997)
Min Temperature 34 °F 21 °F -7 °F (2016)
Degree Days  
Heating Degree Days 27    
Moisture  
Dew Point 37 °F    
Average Humidity 91    
Maximum Humidity 100    
Minimum Humidity 81    
Precipitation  
Precipitation 0.00 in - - ()
Sea Level Pressure  
Sea Level Pressure 29.95 in    
Wind  
Wind Speed 12 mph (West)    
Max Wind Speed 18 mph    
Max Gust Speed -    
Visibility 10 miles    
Events Rain    
Averages and records for this station are not official NWS values.
T = Trace of Precipitation, MM = Missing Value Source: NWS Daily Summary

Daily Weather History Graph

Daily Weather History Graph

Search for Another Location

Airport or City:

Trip Planner

Search our weather history database for the weather conditions in past years. The results will help you decide how hot, cold, wet, or windy it might be!

Date:

Astronomy

Dec. 19, 2012 Rise Set
Actual Time 8:04 AM EST 5:19 PM EST
Civil Twilight 7:33 AM EST 5:50 PM EST
Nautical Twilight 6:58 AM EST 6:25 PM EST
Astronomical Twilight 6:25 AM EST 6:58 PM EST
Moon 12:10 PM EST (12/19) No Moon Set
Length of Visible Light 10h 17m
Length of Day
9h 15m
Waxing Crescent, 45% of the Moon is Illuminated
Dec 19
Waxing Crescent
Dec 20
First Quarter
Dec 28
Full
Jan 4
Last Quarter
Jan 11
New

Hourly Weather History & Observations

Time (EST) Temp. Windchill Dew Point Humidity Pressure Visibility Wind Dir Wind Speed Gust Speed Precip Events Conditions
12:00 AM 42.8 °F 35.1 °F 39.2 °F 87% 29.74 in 10.0 mi West 16.1 mph - N/A   Overcast
12:55 AM 39.4 °F 30.7 °F 37.0 °F 91% 29.78 in 10.0 mi West 16.1 mph - N/A   Overcast
1:03 AM 39.2 °F 30.5 °F 37.4 °F 93% 29.78 in 10.0 mi West 16.1 mph - N/A   Overcast
1:05 AM 39.2 °F 29.8 °F 37.4 °F 93% 29.78 in 10.0 mi West 18.4 mph - N/A   Overcast
1:11 AM 39.2 °F 30.2 °F 37.4 °F 93% 29.78 in 10.0 mi West 17.3 mph - N/A   Overcast
1:22 AM 39.2 °F 31.6 °F 37.4 °F 93% 29.80 in 10.0 mi West 12.7 mph - N/A   Overcast
1:30 AM 39.2 °F 31.2 °F 37.4 °F 93% 29.80 in 10.0 mi West 13.8 mph - N/A   Overcast
1:55 AM 39.0 °F 31.8 °F 36.9 °F 92% 29.82 in 10.0 mi West 11.5 mph - N/A   Overcast
2:13 AM 39.2 °F 31.6 °F 37.4 °F 93% 29.84 in 10.0 mi West 12.7 mph - N/A   Overcast
2:22 AM 37.4 °F 29.8 °F 37.4 °F 100% 29.84 in 10.0 mi West 11.5 mph - N/A   Mostly Cloudy
2:47 AM 39.2 °F 31.2 °F 37.4 °F 93% 29.86 in 10.0 mi West 13.8 mph - N/A   Overcast
2:55 AM 38.5 °F 29.9 °F 36.7 °F 93% 29.87 in 10.0 mi West 15.0 mph - N/A   Overcast
3:01 AM 39.2 °F 31.2 °F 37.4 °F 93% 29.87 in 10.0 mi West 13.8 mph - N/A   Overcast
3:55 AM 38.1 °F 29.8 °F 36.3 °F 93% 29.89 in 10.0 mi West 13.8 mph - N/A   Overcast
4:12 AM 37.4 °F 29.8 °F 35.6 °F 93% 29.89 in 10.0 mi West 11.5 mph - N/A   Overcast
4:43 AM 37.4 °F 29.3 °F 35.6 °F 93% 29.91 in 10.0 mi West 12.7 mph - N/A   Overcast
4:55 AM 38.1 °F 30.2 °F 36.0 °F 92% 29.92 in 10.0 mi West 12.7 mph - N/A   Overcast
5:22 AM 37.4 °F 30.3 °F 35.6 °F 93% 29.93 in 10.0 mi West 10.4 mph - N/A   Overcast
5:55 AM 37.8 °F 30.7 °F 35.6 °F 92% 29.94 in 10.0 mi WNW 10.4 mph - N/A   Overcast
6:02 AM 37.4 °F 30.8 °F 35.6 °F 93% 29.96 in 10.0 mi West 9.2 mph - N/A   Overcast
6:55 AM 36.7 °F 29.4 °F 34.7 °F 93% 29.99 in 10.0 mi West 10.4 mph - N/A   Overcast
7:55 AM 34.0 °F 28.8 °F 33.4 °F 98% 30.00 in 8.0 mi West 5.8 mph - N/A   Mostly Cloudy
8:55 AM 34.9 °F 32.0 °F 34.7 °F 99% 30.04 in 6.0 mi West 3.5 mph - N/A   Mostly Cloudy
9:55 AM 36.7 °F 34.1 °F 34.9 °F 93% 30.04 in 10.0 mi West 3.5 mph - N/A   Overcast
10:30 AM 37.4 °F - 35.6 °F 93% 30.02 in 10.0 mi WNW 1.2 mph - N/A   Overcast
10:55 AM 37.8 °F - 35.2 °F 91% 30.06 in 10.0 mi Calm Calm - N/A   Overcast
11:55 AM 38.7 °F - 35.4 °F 88% 30.06 in 10.0 mi Calm Calm - N/A   Overcast
12:40 PM 39.2 °F - 35.6 °F 87% 30.07 in 10.0 mi Calm Calm - N/A   Scattered Clouds
12:55 PM 39.4 °F - 36.0 °F 88% 30.06 in 10.0 mi Calm Calm - N/A   Mostly Cloudy
1:55 PM 40.3 °F - 36.3 °F 86% 30.06 in 10.0 mi Calm Calm - N/A   Overcast
2:26 PM 41.0 °F 39.0 °F 35.6 °F 81% 30.06 in 10.0 mi ESE 3.5 mph - N/A   Overcast
2:55 PM 40.6 °F 38.6 °F 36.7 °F 86% 30.05 in 10.0 mi ESE 3.5 mph - N/A   Overcast
3:24 PM 41.0 °F 37.1 °F 37.4 °F 87% 30.06 in 10.0 mi ESE 5.8 mph - N/A   Mostly Cloudy
3:55 PM 40.8 °F 36.2 °F 37.2 °F 87% 30.06 in 10.0 mi ESE 6.9 mph - N/A   Mostly Cloudy
4:01 PM 41.0 °F 35.8 °F 37.4 °F 87% 30.06 in 10.0 mi East 8.1 mph - N/A   Mostly Cloudy
4:55 PM 40.6 °F 36.7 °F 37.4 °F 88% 30.07 in 10.0 mi East 5.8 mph - N/A   Mostly Cloudy
5:55 PM 39.9 °F 34.5 °F 37.4 °F 91% 30.06 in 10.0 mi East 8.1 mph - N/A   Mostly Cloudy
6:55 PM 39.9 °F 35.1 °F 37.2 °F 90% 30.04 in 10.0 mi East 6.9 mph - N/A   Partly Cloudy
7:55 PM 40.5 °F 33.6 °F 37.4 °F 89% 30.03 in 10.0 mi East 11.5 mph - N/A   Overcast
8:55 PM 41.0 °F 34.3 °F 37.2 °F 86% 30.01 in 10.0 mi East 11.5 mph - N/A   Overcast
9:12 PM 41.0 °F 34.7 °F 37.4 °F 87% 30.00 in 10.0 mi East 10.4 mph - N/A   Light Drizzle
9:19 PM 41.0 °F 33.9 °F 37.4 °F 87% 30.01 in 10.0 mi ESE 12.7 mph - N/A   Overcast
9:55 PM 40.5 °F 33.2 °F 37.8 °F 90% 30.00 in 10.0 mi East 12.7 mph - 0.00 in   Overcast
10:55 PM 40.8 °F 32.6 °F 37.6 °F 88% 29.93 in 10.0 mi East 16.1 mph - N/A   Overcast
11:25 PM 41.0 °F 32.2 °F 37.4 °F 87% 29.91 in 9.0 mi East 18.4 mph - N/A Rain Light Rain
11:43 PM 41.0 °F 32.2 °F 39.2 °F 93% 29.90 in 10.0 mi ESE 18.4 mph - N/A   Overcast
11:52 PM 41.0 °F 32.8 °F 39.2 °F 93% 29.92 in 9.0 mi ESE 16.1 mph - N/A Rain Light Rain
11:55 PM 41.0 °F 32.8 °F 38.5 °F 91% 29.91 in 8.0 mi ESE 16.1 mph - 0.00 in Rain Light Rain